"Period start","avg(HW err(1)/warn(2) (#))","avg(Visibility (m))","avg(Weather code (#))","avg(Precip intensity (mm/h))","min(HW err(1)/warn(2) (#))","max(HW err(1)/warn(2) (#))","std(HW err(1)/warn(2) (#))","med(HW err(1)/warn(2) (#))","min(Visibility (m))","max(Visibility (m))","std(Visibility (m))","med(Visibility (m))","min(Weather code (#))","max(Weather code (#))","std(Weather code (#))","med(Weather code (#))","min(Precip intensity (mm/h))","max(Precip intensity (mm/h))","std(Precip intensity (mm/h))","med(Precip intensity (mm/h))"
2014-10-15 00:00:00,2,34018,0,0.00,2,2,0,2,29696,43899,4120,32926,0,0,0,0,0.00,0.00,0.00,0.00
2014-10-15 00:10:00,2,43622,0,0.00,2,2,0,2,33975,48964,4365,43668,0,0,0,0,0.00,0.00,0.00,0.00
2014-10-15 00:20:00,2,32667,0,0.00,2,2,0,2,23619,38614,4586,33890,0,0,0,0,0.00,0.00,0.00,0.00
2014-10-15 00:30:00,2,34006,0,0.00,2,2,0,2,26623,41338,3955,33670,0,0,0,0,0.00,0.00,0.00,0.00
2014-10-15 00:40:00,2,35212,0,0.00,2,2,0,2,31430,41443,3300,35143,0,0,0,0,0.00,0.00,0.00,0.00
2014-10-15 00:50:00,2,38673,0,0.00,2,2,0,2,31635,44041,3964,39342,0,0,0,0,0.00,0.00,0.00,0.00
2014-10-15 01:00:00,2,36103,0,0.00,2,2,0,2,32024,40404,3014,36380,0,0,0,0,0.00,0.00,0.00,0.00
2014-10-15 01:10:00,2,40557,0,0.00,2,2,0,2,35050,45708,3114,41048,0,0,0,0,0.00,0.00,0.00,0.00
2014-10-15 01:20:00,2,31014,0,0.00,2,2,0,2,23962,41139,5424,29471,0,0,0,0,0.00,0.00,0.00,0.00
2014-10-15 01:30:00,2,28271,0,0.00,2,2,0,2,23123,32244,2859,28159,0,0,0,0,0.00,0.00,0.00,0.00
2014-10-15 01:40:00,2,30784,0,0.00,2,2,0,2,27681,34895,2224,31055,0,0,0,0,0.00,0.00,0.00,0.00
2014-10-15 01:50:00,2,31423,0,0.00,2,2,0,2,25974,41985,5005,28719,0,0,0,0,0.00,0.00,0.00,0.00
2014-10-15 02:00:00,2,32077,0,0.00,2,2,0,2,27762,36634,2704,32258,0,0,0,0,0.00,0.00,0.00,0.00
2014-10-15 02:10:00,2,25115,0,0.00,2,2,0,2,20451,28795,2681,25060,0,0,0,0,0.00,0.00,0.00,0.00
2014-10-15 02:20:00,2,20999,0,0.00,2,2,0,2,17899,23197,1700,20432,0,0,0,0,0.00,0.00,0.00,0.00
2014-10-15 02:30:00,2,23152,0,0.00,2,2,0,2,20550,27785,2038,22957,0,0,0,0,0.00,0.00,0.00,0.00
2014-10-15 02:40:00,2,25846,0,0.00,2,2,0,2,20698,30259,2647,25703,0,0,0,0,0.00,0.00,0.00,0.00
2014-10-15 02:50:00,2,26269,0,0.00,2,2,0,2,23119,31983,2501,25562,0,0,0,0,0.00,0.00,0.00,0.00
2014-10-15 03:00:00,2,21816,0,0.00,2,2,0,2,18584,24999,2159,22467,0,0,0,0,0.00,0.00,0.00,0.00
2014-10-15 03:10:00,2,20853,0,0.00,2,2,0,2,19482,22628,1166,20560,0,0,0,0,0.00,0.00,0.00,0.00
2014-10-15 03:20:00,2,25965,0,0.00,2,2,0,2,22231,32887,2931,25299,0,0,0,0,0.00,0.00,0.00,0.00
2014-10-15 03:30:00,2,25908,0,0.00,2,2,0,2,22130,29833,2212,26196,0,0,0,0,0.00,0.00,0.00,0.00
2014-10-15 03:40:00,2,25839,0,0.00,2,2,0,2,22148,28533,1843,26093,0,0,0,0,0.00,0.00,0.00,0.00
2014-10-15 03:50:00,2,25576,0,0.00,2,2,0,2,21766,29857,2411,25536,0,0,0,0,0.00,0.00,0.00,0.00
2014-10-15 04:00:00,2,28472,0,0.00,2,2,0,2,25978,33003,2235,27998,0,0,0,0,0.00,0.00,0.00,0.00
2014-10-15 04:10:00,2,24070,0,0.00,2,2,0,2,19842,30101,2853,23942,0,0,0,0,0.00,0.00,0.00,0.00
2014-10-15 04:20:00,2,28372,0,0.00,2,2,0,2,24385,36170,3106,28392,0,0,0,0,0.00,0.00,0.00,0.00
2014-10-15 04:30:00,2,25285,0,0.00,2,2,0,2,21964,28509,1998,25518,0,0,0,0,0.00,0.00,0.00,0.00
2014-10-15 04:40:00,2,26402,0,0.00,2,2,0,2,23863,30073,2223,26237,0,0,0,0,0.00,0.00,0.00,0.00
2014-10-15 04:50:00,2,25203,0,0.00,2,2,0,2,22461,27948,1957,25507,0,0,0,0,0.00,0.00,0.00,0.00
2014-10-15 05:00:00,2,27612,0,0.00,2,2,0,2,25722,29919,1245,27181,0,0,0,0,0.00,0.00,0.00,0.00
2014-10-15 05:10:00,2,25385,0,0.00,2,2,0,2,21662,29006,2391,25720,0,0,0,0,0.00,0.00,0.00,0.00
2014-10-15 05:20:00,2,24712,0,0.00,2,2,0,2,20844,28119,2052,24343,0,0,0,0,0.00,0.00,0.00,0.00
2014-10-15 05:30:00,2,28702,0,0.00,2,2,0,2,24533,33711,2674,28022,0,0,0,0,0.00,0.00,0.00,0.00
2014-10-15 05:40:00,2,26514,0,0.00,2,2,0,2,21961,31265,3052,26748,0,0,0,0,0.00,0.00,0.00,0.00
2014-10-15 05:50:00,2,27549,0,0.00,2,2,0,2,23210,32853,3104,27740,0,0,0,0,0.00,0.00,0.00,0.00
2014-10-15 06:00:00,2,28174,0,0.00,2,2,0,2,24024,35600,3739,27145,0,0,0,0,0.00,0.00,0.00,0.00
2014-10-15 06:10:00,2,25446,0,0.00,2,2,0,2,21094,27916,1957,25428,0,0,0,0,0.00,0.00,0.00,0.00
2014-10-15 06:20:00,2,27479,0,0.00,2,2,0,2,22909,33634,3143,26644,0,0,0,0,0.00,0.00,0.00,0.00
2014-10-15 06:30:00,2,29284,0,0.00,2,2,0,2,26232,32659,2023,28702,0,0,0,0,0.00,0.00,0.00,0.00
2014-10-15 06:40:00,2,27761,0,0.00,2,2,0,2,23274,31800,2888,27709,0,0,0,0,0.00,0.00,0.00,0.00
2014-10-15 06:50:00,2,29107,0,0.00,2,2,0,2,26524,31999,1720,28659,0,0,0,0,0.00,0.00,0.00,0.00
2014-10-15 07:00:00,2,27196,0,0.00,2,2,0,2,22700,30705,2404,27353,0,0,0,0,0.00,0.00,0.00,0.00
2014-10-15 07:10:00,2,29873,0,0.00,2,2,0,2,26320,35302,2526,29606,0,0,0,0,0.00,0.00,0.00,0.00
2014-10-15 07:20:00,2,31018,0,0.00,2,2,0,2,24549,37522,3569,31202,0,0,0,0,0.00,0.00,0.00,0.00
2014-10-15 07:30:00,2,41527,0,0.00,2,2,0,2,29193,50000,6413,42659,0,0,0,0,0.00,0.00,0.00,0.00
2014-10-15 07:40:00,2,36193,0,0.00,2,2,0,2,27281,44103,5393,37201,0,0,0,0,0.00,0.00,0.00,0.00
2014-10-15 07:50:00,2,39718,0,0.00,2,2,0,2,31013,44929,4083,40252,0,0,0,0,0.00,0.00,0.00,0.00
2014-10-15 08:00:00,2,39319,0,0.00,2,2,0,2,32326,45421,4328,38899,0,0,0,0,0.00,0.00,0.00,0.00
2014-10-15 08:10:00,2,35051,22,0.01,2,2,0,2,27904,43221,4214,33894,0,77,33,0,0.00,0.05,0.02,0.00
2014-10-15 08:20:00,2,34591,53,0.00,2,2,0,2,22107,40936,5571,35696,0,78,35,74,0.00,0.00,0.00,0.00
2014-10-15 08:30:00,2,31811,7,0.01,2,2,0,2,17902,40888,6379,32820,0,71,21,0,0.00,0.05,0.02,0.00
2014-10-15 08:40:00,2,38008,29,0.00,2,2,0,2,27456,46411,5652,39208,0,78,36,0,0.00,0.00,0.00,0.00
2014-10-15 08:50:00,2,35367,22,0.00,2,2,0,2,24599,44310,5140,35362,0,78,34,0,0.00,0.00,0.00,0.00
2014-10-15 09:00:00,2,34356,38,0.00,2,2,0,2,27090,39644,3658,34738,0,78,38,36,0.00,0.00,0.00,0.00
2014-10-15 09:10:00,2,35962,0,0.00,2,2,0,2,30264,45162,4516,35579,0,0,0,0,0.00,0.00,0.00,0.00
2014-10-15 09:20:00,2,37826,0,0.00,2,2,0,2,30480,47036,4881,37158,0,0,0,0,0.00,0.00,0.00,0.00
2014-10-15 09:30:00,2,36184,0,0.00,2,2,0,2,30819,39615,2461,35838,0,0,0,0,0.00,0.00,0.00,0.00
2014-10-15 09:40:00,2,38802,0,0.00,2,2,0,2,31609,46420,4045,38681,0,0,0,0,0.00,0.00,0.00,0.00
2014-10-15 09:50:00,2,34836,0,0.00,2,2,0,2,25356,41295,4294,34862,0,0,0,0,0.00,0.00,0.00,0.00
2014-10-15 10:00:00,2,36602,0,0.00,2,2,0,2,28576,44337,4415,36228,0,0,0,0,0.00,0.00,0.00,0.00
2014-10-15 10:10:00,2,35071,28,0.01,2,2,0,2,22865,41217,6109,37677,0,71,35,0,0.00,0.05,0.02,0.00
2014-10-15 10:20:00,2,37461,22,0.00,2,2,0,2,31716,42940,3383,38066,0,78,34,0,0.00,0.00,0.00,0.00
2014-10-15 10:30:00,2,38731,0,0.00,2,2,0,2,32392,44922,3366,39178,0,0,0,0,0.00,0.00,0.00,0.00
2014-10-15 10:40:00,2,39883,0,0.00,2,2,0,2,36432,43477,2267,40086,0,0,0,0,0.00,0.00,0.00,0.00
2014-10-15 10:50:00,2,42413,0,0.00,2,2,0,2,34971,49987,4526,41075,0,0,0,0,0.00,0.00,0.00,0.00
2014-10-15 11:00:00,2,39487,0,0.00,2,2,0,2,31970,47789,5064,38422,0,0,0,0,0.00,0.00,0.00,0.00
2014-10-15 11:10:00,2,38505,0,0.00,2,2,0,2,22980,50000,8038,39460,0,0,0,0,0.00,0.00,0.00,0.00
2014-10-15 11:20:00,2,41841,22,0.00,2,2,0,2,28778,50000,6138,44142,0,78,34,0,0.00,0.00,0.00,0.00
2014-10-15 11:30:00,2,43580,0,0.00,2,2,0,2,36769,50000,4833,43431,0,0,0,0,0.00,0.00,0.00,0.00
2014-10-15 11:40:00,2,43654,0,0.00,2,2,0,2,32918,50000,6073,44032,0,0,0,0,0.00,0.00,0.00,0.00
2014-10-15 11:50:00,2,45502,0,0.00,2,2,0,2,39366,49727,3200,45818,0,0,0,0,0.00,0.00,0.00,0.00
2014-10-15 12:00:00,2,44370,0,0.00,2,2,0,2,39318,49562,3491,44876,0,0,0,0,0.00,0.00,0.00,0.00
2014-10-15 12:10:00,2,46135,0,0.00,2,2,0,2,43974,49830,1977,45408,0,0,0,0,0.00,0.00,0.00,0.00
2014-10-15 12:20:00,2,46621,0,0.00,2,2,0,2,42503,50000,2926,47241,0,0,0,0,0.00,0.00,0.00,0.00
2014-10-15 12:30:00,2,43468,0,0.00,2,2,0,2,33099,50000,5677,45432,0,0,0,0,0.00,0.00,0.00,0.00
2014-10-15 12:40:00,2,48398,0,0.00,2,2,0,2,43954,50000,1842,48986,0,0,0,0,0.00,0.00,0.00,0.00
2014-10-15 12:50:00,2,46320,0,0.00,2,2,0,2,42379,50000,2520,45880,0,0,0,0,0.00,0.00,0.00,0.00
2014-10-15 13:00:00,2,42208,0,0.00,2,2,0,2,30853,50000,6343,42219,0,0,0,0,0.00,0.00,0.00,0.00
2014-10-15 13:10:00,2,47193,0,0.00,2,2,0,2,42630,50000,2489,47118,0,0,0,0,0.00,0.00,0.00,0.00
2014-10-15 13:20:00,2,44621,0,0.00,2,2,0,2,39666,50000,3029,44926,0,0,0,0,0.00,0.00,0.00,0.00
2014-10-15 13:30:00,2,45430,0,0.00,2,2,0,2,34865,50000,4959,47298,0,0,0,0,0.00,0.00,0.00,0.00
2014-10-15 13:40:00,2,32744,43,0.01,2,2,0,2,22714,42799,6651,34402,0,71,35,71,0.00,0.10,0.03,0.00
2014-10-15 13:50:00,2,48085,0,0.00,2,2,0,2,44191,50000,2052,48525,0,0,0,0,0.00,0.00,0.00,0.00
2014-10-15 14:00:00,2,47868,0,0.00,2,2,0,2,42888,50000,2295,48371,0,0,0,0,0.00,0.00,0.00,0.00
2014-10-15 14:10:00,2,43504,0,0.00,2,2,0,2,39968,50000,3809,41238,0,0,0,0,0.00,0.00,0.00,0.00
2014-10-15 14:20:00,2,47720,0,0.00,2,2,0,2,43553,50000,2127,48298,0,0,0,0,0.00,0.00,0.00,0.00
2014-10-15 14:30:00,2,49618,0,0.00,2,2,0,2,47899,50000,702,50000,0,0,0,0,0.00,0.00,0.00,0.00
2014-10-15 14:40:00,2,47699,0,0.00,2,2,0,2,39917,50000,3040,49146,0,0,0,0,0.00,0.00,0.00,0.00
2014-10-15 14:50:00,2,47604,0,0.00,2,2,0,2,44177,50000,2417,48419,0,0,0,0,0.00,0.00,0.00,0.00
2014-10-15 15:00:00,2,49522,0,0.00,2,2,0,2,47738,50000,768,50000,0,0,0,0,0.00,0.00,0.00,0.00
2014-10-15 15:10:00,2,48004,0,0.00,2,2,0,2,45542,50000,1733,47941,0,0,0,0,0.00,0.00,0.00,0.00
2014-10-15 15:20:00,2,49590,0,0.00,2,2,0,2,46834,50000,936,50000,0,0,0,0,0.00,0.00,0.00,0.00
2014-10-15 15:30:00,2,49016,0,0.00,2,2,0,2,46955,50000,1238,50000,0,0,0,0,0.00,0.00,0.00,0.00
2014-10-15 15:40:00,2,49282,0,0.00,2,2,0,2,46813,50000,1029,50000,0,0,0,0,0.00,0.00,0.00,0.00
2014-10-15 15:50:00,2,48328,0,0.00,2,2,0,2,41118,50000,3072,50000,0,0,0,0,0.00,0.00,0.00,0.00
2014-10-15 16:00:00,2,49021,0,0.00,2,2,0,2,45146,50000,1499,49923,0,0,0,0,0.00,0.00,0.00,0.00
2014-10-15 16:10:00,2,49893,0,0.00,2,2,0,2,48926,50000,322,50000,0,0,0,0,0.00,0.00,0.00,0.00
2014-10-15 16:20:00,2,49905,0,0.00,2,2,0,2,49052,50000,284,50000,0,0,0,0,0.00,0.00,0.00,0.00
2014-10-15 16:30:00,2,49876,0,0.00,2,2,0,2,49515,50000,192,50000,0,0,0,0,0.00,0.00,0.00,0.00
2014-10-15 16:40:00,2,48026,0,0.00,2,2,0,2,45350,50000,1796,47821,0,0,0,0,0.00,0.00,0.00,0.00
2014-10-15 16:50:00,2,47367,0,0.00,2,2,0,2,43862,50000,2289,47481,0,0,0,0,0.00,0.00,0.00,0.00
2014-10-15 17:00:00,2,46600,0,0.00,2,2,0,2,42190,50000,2692,46310,0,0,0,0,0.00,0.00,0.00,0.00
2014-10-15 17:10:00,2,46426,0,0.00,2,2,0,2,40703,50000,3091,46323,0,0,0,0,0.00,0.00,0.00,0.00
2014-10-15 17:20:00,2,44933,0,0.00,2,2,0,2,38258,50000,3909,44460,0,0,0,0,0.00,0.00,0.00,0.00
2014-10-15 17:30:00,2,47923,0,0.00,2,2,0,2,44402,50000,1874,48300,0,0,0,0,0.00,0.00,0.00,0.00
2014-10-15 17:40:00,2,46232,0,0.00,2,2,0,2,36862,50000,4175,48228,0,0,0,0,0.00,0.00,0.00,0.00
2014-10-15 17:50:00,2,43358,0,0.00,2,2,0,2,33576,47586,3967,44324,0,0,0,0,0.00,0.00,0.00,0.00
2014-10-15 18:00:00,2,46196,0,0.00,2,2,0,2,40976,50000,2777,45555,0,0,0,0,0.00,0.00,0.00,0.00
2014-10-15 18:10:00,2,40218,0,0.00,2,2,0,2,34157,47526,4325,39230,0,0,0,0,0.00,0.00,0.00,0.00
2014-10-15 18:20:00,2,32026,7,0.00,2,2,0,2,9937,46680,10389,34822,0,71,21,0,0.00,0.00,0.00,0.00
2014-10-15 18:30:00,2,35483,14,0.03,2,2,0,2,18069,41835,6753,37472,0,71,28,0,0.00,0.30,0.09,0.00
2014-10-15 18:40:00,2,39390,0,0.00,2,2,0,2,30268,48242,5009,39598,0,0,0,0,0.00,0.00,0.00,0.00
2014-10-15 18:50:00,2,34558,0,0.00,2,2,0,2,12692,48442,9714,36070,0,0,0,0,0.00,0.00,0.00,0.00
2014-10-15 19:00:00,2,39194,0,0.00,2,2,0,2,33269,47900,4151,39424,0,0,0,0,0.00,0.00,0.00,0.00
2014-10-15 19:10:00,2,35003,0,0.00,2,2,0,2,31298,38857,2606,36230,0,0,0,0,0.00,0.00,0.00,0.00
2014-10-15 19:20:00,2,42503,0,0.00,2,2,0,2,32135,49858,5656,43816,0,0,0,0,0.00,0.00,0.00,0.00
2014-10-15 19:30:00,2,36751,0,0.00,2,2,0,2,27629,50000,9180,30958,0,0,0,0,0.00,0.00,0.00,0.00
2014-10-15 19:40:00,2,36026,0,0.00,2,2,0,2,27585,43274,4544,36789,0,0,0,0,0.00,0.00,0.00,0.00
2014-10-15 19:50:00,2,42824,0,0.00,2,2,0,2,35268,50000,4671,42033,0,0,0,0,0.00,0.00,0.00,0.00
2014-10-15 20:00:00,2,35117,0,0.00,2,2,0,2,30457,42293,3695,34186,0,0,0,0,0.00,0.00,0.00,0.00
2014-10-15 20:10:00,2,33921,0,0.00,2,2,0,2,27821,38791,3080,34612,0,0,0,0,0.00,0.00,0.00,0.00
2014-10-15 20:20:00,2,37567,0,0.00,2,2,0,2,30237,45125,4229,36468,0,0,0,0,0.00,0.00,0.00,0.00
2014-10-15 20:30:00,2,39269,0,0.00,2,2,0,2,30195,44904,5149,40308,0,0,0,0,0.00,0.00,0.00,0.00
2014-10-15 20:40:00,2,43854,0,0.00,2,2,0,2,37244,50000,3930,43294,0,0,0,0,0.00,0.00,0.00,0.00
2014-10-15 20:50:00,2,42825,0,0.00,2,2,0,2,38375,47236,3065,43556,0,0,0,0,0.00,0.00,0.00,0.00
2014-10-15 21:00:00,2,39719,0,0.00,2,2,0,2,33964,49599,4138,39308,0,0,0,0,0.00,0.00,0.00,0.00
2014-10-15 21:10:00,2,33477,0,0.00,2,2,0,2,29502,37183,2613,33838,0,0,0,0,0.00,0.00,0.00,0.00
2014-10-15 21:20:00,2,39520,0,0.00,2,2,0,2,33703,45201,3501,39087,0,0,0,0,0.00,0.00,0.00,0.00
2014-10-15 21:30:00,2,39996,0,0.00,2,2,0,2,32948,46309,4113,40128,0,0,0,0,0.00,0.00,0.00,0.00
2014-10-15 21:40:00,2,43102,0,0.00,2,2,0,2,39669,49507,3368,41501,0,0,0,0,0.00,0.00,0.00,0.00
2014-10-15 21:50:00,2,45979,0,0.00,2,2,0,2,41285,49996,2940,47136,0,0,0,0,0.00,0.00,0.00,0.00
2014-10-15 22:00:00,2,48240,0,0.00,2,2,0,2,44369,50000,2003,49292,0,0,0,0,0.00,0.00,0.00,0.00
2014-10-15 22:10:00,2,48294,0,0.00,2,2,0,2,42503,50000,2598,49534,0,0,0,0,0.00,0.00,0.00,0.00
2014-10-15 22:20:00,2,46231,0,0.00,2,2,0,2,31821,50000,5428,48300,0,0,0,0,0.00,0.00,0.00,0.00
2014-10-15 22:30:00,2,43076,0,0.00,2,2,0,2,35648,49563,3778,43784,0,0,0,0,0.00,0.00,0.00,0.00
2014-10-15 22:40:00,2,39351,22,0.00,2,2,0,2,24505,49098,7312,38078,0,78,34,0,0.00,0.00,0.00,0.00
2014-10-15 22:50:00,2,47739,0,0.00,2,2,0,2,38998,50000,3215,48794,0,0,0,0,0.00,0.00,0.00,0.00
2014-10-15 23:00:00,2,41340,7,0.00,2,2,0,2,30545,49637,6032,42257,0,71,21,0,0.00,0.00,0.00,0.00
2014-10-15 23:10:00,2,40069,62,0.00,2,2,0,2,26636,50000,7945,40258,0,78,31,78,0.00,0.00,0.00,0.00
2014-10-15 23:20:00,2,43641,0,0.00,2,2,0,2,34995,50000,5253,43995,0,0,0,0,0.00,0.00,0.00,0.00
2014-10-15 23:30:00,2,42962,0,0.00,2,2,0,2,31785,50000,5884,43816,0,0,0,0,0.00,0.00,0.00,0.00
2014-10-15 23:40:00,2,48520,0,0.00,2,2,0,2,42895,50000,2430,49945,0,0,0,0,0.00,0.00,0.00,0.00
2014-10-15 23:50:00,2,48443,0,0.00,2,2,0,2,40762,50000,2742,49950,0,0,0,0,0.00,0.00,0.00,0.00
